Theta_e
279 276 271 272 274 274 274 274 272 274 280 279 276 276 278 280 280 280 280 281 282 282 284 285 285 286 286 287 286 286 287 287 288 287 287 287 287 289 291 292 293 294 296 298
275 272 274 277 277 275 275 274 273 278 281 279 278 275 278 278 278 279 279 279 280 282 283 284 284 284 284 285 285 286 286 286 287 287 287 288 288 288 289 291 291 292 293 295
271 272 276 277 274 275 273 273 273 276 280 279 279 274 275 277 278 279 278 279 280 280 281 282 283 282 283 283 284 285 286 286 286 287 287 287 287 287 287 288 289 290 291 292
273 275 275 274 273 274 273 275 275 277 275 270 280 263 274 275 275 276 276 276 277 279 280 281 282 282 282 282 283 284 285 286 286 287 286 285 284 283 285 286 288 288 290 290
272 272 272 272 273 275 274 276 276 277 274 270 271 266 271 274 273 273 274 276 277 278 279 280 281 282 283 282 282 282 283 285 285 285 286 285 284 285 286 286 286 287 288 288
273 274 273 272 275 276 277 276 276 274 272 261 267 267 267 271 274 273 274 276 277 277 278 279 281 281 281 282 282 282 283 283 284 284 284 284 284 284 283 284 284 285 286 287
273 272 274 275 273 275 275 271 258 260 258 261 269 265 269 273 274 274 274 275 276 277 277 278 278 279 279 280 281 282 282 282 283 283 283 283 283 283 283 283 283 283 284 284
265 267 272 275 272 270 272 268 262 257 259 261 268 262 269 275 276 275 276 276 276 276 276 277 278 278 278 279 279 280 281 281 282 282 283 283 283 283 283 283 283 283 283 284
263 267 273 276 274 272 270 266 270 255 249 255 263 269 274 275 273 273 274 274 274 275 276 276 277 278 278 278 279 279 279 280 281 281 282 282 283 282 282 283 283 283 283 284
268 264 272 274 274 275 272 273 263 258 255 254 261 262 265 273 273 273 272 273 274 275 276 276 277 278 278 278 279 279 280 279 280 280 281 282 282 282 282 282 282 282 282 283
270 266 268 272 269 267 268 268 265 262 260 255 255 264 266 272 275 275 275 274 274 275 275 276 277 278 278 278 278 279 279 279 280 281 281 281 281 282 282 281 281 281 282 282
272 262 261 266 270 270 270 267 266 259 258 260 261 262 274 273 276 275 274 276 275 276 276 276 276 277 277 277 277 278 279 279 280 280 281 281 281 281 280 280 281 281 280 281
271 262 257 264 267 270 267 270 268 262 260 256 257 263 272 274 273 275 274 275 275 276 276 276 276 276 276 277 277 278 279 279 280 280 280 281 281 280 280 280 281 280 280 279
274 264 262 263 264 264 264 266 265 261 255 260 262 265 270 270 271 273 274 275 274 275 276 275 275 276 277 278 278 278 279 280 280 280 280 280 281 281 280 280 280 280 279 278
268 259 262 262 265 265 267 268 267 263 263 260 265 265 270 271 271 274 276 276 276 277 277 276 277 276 277 277 278 278 279 279 279 279 280 280 281 280 280 279 279 279 278 279
271 258 261 258 263 266 265 268 269 269 268 267 268 268 275 275 276 275 275 276 276 276 277 278 278 279 279 279 279 280 279 280 280 279 280 281 280 280 279 278 278 277 278 277
263 260 255 256 261 258 260 264 268 268 268 269 265 270 272 271 273 274 274 275 276 277 278 278 278 279 280 280 280 279 279 279 279 279 280 280 279 278 277 277 276 276 276 275
260 258 254 254 254 254 268 268 269 269 270 271 270 271 272 273 273 275 276 275 276 277 278 279 279 279 279 280 279 279 279 279 279 279 278 277 277 276 276 275 275 275 274 273
270 263 254 255 250 261 269 267 266 266 267 272 271 273 274 275 271 272 276 275 276 275 277 279 280 280 279 279 279 279 278 278 276 273 273 275 275 274 273 273 273 273 272 272
269 265 261 249 251 254 266 268 270 270 263 272 272 273 273 272 267 271 276 276 277 277 275 277 279 279 278 277 277 277 276 273 271 272 272 272 272 272 270 270 270 272 272 272
265 264 263 255 254 259 268 271 271 262 268 273 273 274 273 270 273 276 276 276 277 275 276 277 276 276 276 273 275 272 269 268 270 270 269 269 269 269 269 269 270 270 270 270
263 262 260 260 254 257 271 270 268 273 274 275 273 274 274 274 275 276 276 276 277 276 276 277 273 273 271 273 274 268 266 268 267 268 267 266 267 267 268 268 268 269 269 268
264 268 265 266 265 272 272 273 276 275 274 275 274 275 274 274 275 276 276 276 277 277 277 274 271 269 269 269 271 269 266 266 266 265 264 265 266 267 268 267 267 267 267 266
267 271 267 267 271 272 272 275 276 276 275 277 276 277 277 275 276 277 277 277 277 278 277 273 272 269 266 265 267 263 263 266 264 262 263 264 265 265 266 266 267 266 265 266
271 271 270 269 273 275 275 275 276 277 277 277 278 277 277 277 277 277 277 277 277 277 276 274 272 271 268 267 264 261 264 263 262 262 263 264 264 264 264 265 265 266 268 269
273 273 271 272 277 276 278 278 278 277 277 278 278 278 278 277 277 278 277 277 276 275 273 271 268 266 264 262 261 260 258 259 259 260 262 261 261 262 262 263 263 267 269 271
Wind_Speed
12 17 8 7 6 4 6 8 9 3 2 9 8 9 5 5 5 7 6 7 8 8 7 7 9 9 10 12 14 16 16 16 13 12 12 11 11 10 9 9 12 15 16 16
9 12 7 4 4 8 7 7 5 3 5 7 8 6 3 3 3 4 4 5 5 4 5 6 6 7 7 8 10 12 13 13 12 10 10 6 9 8 8 9 11 13 14 15
11 3 7 3 9 6 6 5 2 4 4 6 6 1 3 2 3 4 5 4 5 6 7 7 7 6 6 8 9 9 10 10 10 10 8 8 6 8 9 11 10 12 13 14
10 6 4 6 7 5 3 2 2 5 4 4 3 4 4 4 3 2 3 4 4 5 5 4 5 6 5 5 6 6 9 9 10 10 9 11 8 9 9 9 10 11 12 12
0 6 7 7 4 4 2 1 3 2 4 4 5 4 4 5 5 4 1 3 5 6 7 8 8 7 6 6 6 6 6 7 8 8 8 8 9 7 7 8 12 13 13 13
4 1 4 2 3 3 3 3 5 4 3 5 5 4 4 5 5 4 2 3 4 6 8 8 7 7 6 6 6 6 7 7 8 7 7 8 9 10 10 11 10 10 9 10
4 4 5 4 4 4 7 5 4 7 7 5 3 3 8 3 4 7 7 5 4 5 6 8 8 8 8 7 7 6 7 9 8 8 7 7 8 8 9 9 9 12 10 9
4 6 7 9 3 1 4 4 6 4 1 5 5 5 5 3 5 4 5 4 4 6 7 8 9 8 7 7 7 7 7 7 7 7 8 6 6 5 6 8 8 8 8 9
5 1 4 3 3 2 4 6 3 10 1 4 3 7 3 1 3 4 6 5 6 8 8 9 10 8 7 7 7 6 7 7 8 7 6 7 5 6 8 10 8 7 10 10
3 3 2 4 2 6 6 5 4 5 3 5 6 6 7 6 8 8 6 8 7 8 9 9 9 8 6 6 7 7 7 7 8 7 6 5 7 7 8 8 10 10 11 12
3 4 4 2 5 0 4 2 7 6 3 6 2 9 7 6 5 9 8 7 7 9 9 8 9 9 7 6 6 7 7 7 8 7 6 7 7 7 7 7 9 10 12 12
2 5 2 1 3 2 1 3 4 7 5 1 3 11 1 5 6 5 6 7 8 7 8 8 9 8 8 7 7 7 7 7 9 7 6 7 7 6 7 9 10 10 11 11
4 2 4 8 5 3 2 4 5 5 4 6 7 10 2 4 4 5 7 10 8 7 10 9 8 7 7 7 7 7 7 8 8 6 6 7 7 6 7 9 10 11 11 12
6 3 6 8 7 4 2 3 4 7 5 5 10 8 10 9 7 9 9 10 8 9 10 8 8 8 8 8 8 8 8 8 9 6 7 8 8 7 8 9 10 11 11 12
5 4 2 4 5 3 5 7 10 10 7 8 3 9 18 8 7 11 10 13 11 11 10 9 8 8 8 8 9 8 7 8 6 7 7 9 8 7 7 10 11 12 12 11
2 2 3 5 3 3 10 13 14 15 13 15 19 23 25 22 16 12 14 11 11 12 12 11 10 10 10 11 10 8 8 8 6 7 9 9 7 7 9 11 12 13 13 12
5 6 4 7 4 6 11 10 14 9 6 19 15 16 5 7 8 9 9 9 11 13 13 12 12 11 10 10 9 7 8 7 7 7 9 7 7 9 11 12 12 13 13 13
7 6 3 4 4 1 5 3 6 11 9 17 7 11 9 11 7 6 10 11 13 13 14 14 12 9 9 8 7 6 7 6 6 7 6 6 8 10 12 13 13 13 12 13
1 6 2 3 4 9 10 4 8 10 11 14 17 18 17 16 3 8 13 10 14 12 14 13 11 9 7 8 7 6 6 5 4 4 5 7 9 12 13 13 14 13 13 13
3 4 6 3 4 9 6 2 4 5 7 8 12 14 12 1 4 7 10 8 11 10 9 10 11 7 6 8 4 4 5 2 4 4 7 9 8 11 12 13 14 12 12 13
5 2 9 5 5 12 15 5 5 6 9 5 9 12 9 7 10 8 5 8 7 9 11 9 8 9 9 3 3 4 2 4 4 6 7 8 8 10 11 12 11 12 13 13
11 11 7 4 3 14 9 5 10 11 4 5 6 8 8 9 11 11 12 12 12 12 11 10 6 8 5 3 2 2 4 2 4 6 8 9 9 8 9 11 11 12 12 12
4 10 9 16 13 3 11 7 16 1 4 5 5 8 10 10 10 14 13 14 14 13 11 5 5 4 2 2 2 2 3 5 5 5 7 8 9 9 9 11 11 11 10 9
7 5 5 3 10 21 11 15 13 9 12 12 10 13 11 12 15 15 13 13 12 11 10 4 4 5 3 3 2 1 3 4 5 7 8 8 9 10 9 8 8 8 9 9
6 9 6 8 16 14 13 16 16 14 14 15 17 14 15 13 15 14 13 12 10 9 6 4 5 3 2 3 2 1 4 5 6 7 7 8 7 9 10 9 9 9 10 11
8 10 8 13 14 11 13 7 8 12 16 15 14 15 13 11 15 14 12 10 7 7 3 4 3 2 1 2 2 2 3 3 4 7 7 7 8 8 8 9 11 15 19 21
Wind_Direction
21 58 33 321 347 58 92 84 92 15 353 66 76 95 83 51 52 51 38 32 32 25 355 6 16 9 11 15 14 13 12 11 11 10 7 7 1 3 8 8 360 360 4 358
46 52 330 286 18 60 48 83 50 53 5 94 123 98 109 82 74 70 54 40 31 10 2 359 1 4 353 4 7 11 12 10 12 7 4 1 349 355 2 356 359 359 357 0
77 299 314 62 42 57 41 70 13 128 93 53 135 48 206 117 108 66 40 26 20 8 355 350 349 345 343 4 360 2 3 6 13 7 1 359 353 355 0 359 354 351 353 356
74 338 18 37 62 3 74 338 201 126 84 155 5 271 267 191 160 77 27 19 356 350 333 320 334 336 348 344 337 350 358 358 6 4 7 7 4 358 347 341 339 344 350 350
147 4 15 35 8 339 93 39 127 99 91 83 342 71 259 137 225 209 237 354 338 332 333 332 333 331 322 342 343 342 346 353 354 0 5 3 356 346 338 337 339 342 343 346
94 51 54 311 304 338 287 124 47 55 63 35 269 110 260 192 206 172 209 255 303 316 317 317 312 320 318 328 341 341 351 340 347 350 352 355 348 340 341 342 340 340 335 335
7 24 333 36 350 10 46 52 352 5 15 209 336 36 245 212 179 170 190 224 269 293 303 305 315 317 319 318 323 329 346 338 338 343 345 340 333 332 331 332 331 331 331 333
61 347 12 339 70 250 30 119 137 204 310 277 331 244 255 214 187 172 191 228 281 296 308 311 304 304 308 295 307 309 327 320 324 326 326 324 319 327 323 325 321 315 318 319
105 349 328 48 13 67 297 47 146 103 71 42 270 286 266 168 200 237 248 258 279 295 308 300 301 301 303 295 299 296 308 305 308 313 311 314 312 317 316 316 315 315 313 313
213 54 13 300 330 31 86 144 49 7 52 318 291 279 246 217 226 238 248 247 272 293 306 305 304 301 297 286 294 302 291 282 286 295 298 306 303 305 307 307 309 312 312 317
128 101 287 8 26 47 10 53 54 107 106 159 281 271 213 200 225 226 237 246 272 293 297 293 296 296 288 287 291 284 283 290 294 286 292 297 300 303 300 300 304 308 309 311
42 139 103 247 287 245 258 184 122 115 265 176 139 273 219 218 231 202 235 273 291 283 283 288 287 289 296 288 289 278 287 288 283 272 273 279 286 292 299 304 307 307 305 308
189 336 19 343 357 1 191 180 110 102 79 208 137 262 259 254 274 246 268 282 283 279 295 296 301 298 282 281 279 282 289 286 282 278 282 285 285 284 288 300 305 307 305 306
92 97 163 193 205 137 195 201 154 125 127 192 231 291 264 247 249 277 280 268 259 269 276 278 288 287 277 271 268 278 286 281 286 290 283 284 287 286 291 296 301 302 304 301
108 165 145 270 270 341 242 216 182 201 183 175 251 218 264 269 274 284 282 284 289 281 281 273 275 275 270 267 268 269 269 275 280 282 288 283 282 287 292 299 304 304 304 298
80 219 86 304 4 311 273 253 224 221 227 251 257 272 271 274 275 272 267 269 267 263 264 265 266 271 271 266 261 269 277 289 284 284 285 289 291 300 301 304 307 306 303 305
123 132 89 266 336 333 292 239 192 186 197 216 224 233 263 261 241 248 257 263 267 271 268 262 257 260 269 266 265 261 280 282 282 281 288 292 307 306 305 306 305 304 304 304
131 101 90 240 9 118 236 191 173 199 230 220 262 256 244 242 244 267 257 251 266 266 269 268 262 257 264 267 259 269 272 273 280 291 301 313 311 306 306 306 304 305 303 300
112 118 84 152 206 300 286 185 167 174 258 235 223 250 257 263 156 273 254 246 242 247 257 260 262 255 269 260 264 264 279 279 291 297 303 311 311 307 307 305 306 304 302 300
77 65 119 79 166 228 238 154 175 138 283 226 186 233 245 229 265 258 258 255 265 252 247 262 263 258 252 264 250 267 277 292 295 313 309 306 303 302 301 302 301 300 297 294
145 197 215 200 247 281 251 186 165 89 244 204 182 218 226 193 228 260 267 266 248 242 260 263 256 256 257 233 233 242 274 283 294 306 298 302 300 298 294 295 298 300 298 298
165 162 199 147 153 276 158 96 177 214 205 207 205 220 225 235 258 266 271 268 272 270 276 267 239 253 256 197 175 233 258 279 304 306 303 300 300 297 298 297 299 300 299 297
221 196 185 194 204 230 204 201 222 211 206 233 215 228 223 244 257 269 269 273 271 267 268 252 220 244 217 148 123 291 280 325 315 308 299 299 302 301 303 305 304 305 304 300
247 170 234 95 225 239 219 246 255 242 243 254 246 261 267 258 266 266 266 265 265 261 259 220 202 209 239 181 131 203 308 317 316 302 303 306 308 311 310 306 300 298 301 300
191 145 224 253 271 268 247 233 238 248 247 253 258 252 252 255 262 259 265 265 258 254 249 200 211 229 172 121 92 347 339 342 320 310 309 310 311 312 309 303 302 300 294 294
186 192 203 251 241 232 266 228 228 236 247 247 248 266 256 240 255 265 265 259 251 247 196 189 210 153 82 56 338 331 335 333 312 312 315 315 311 313 309 309 309 306 305 306